When you browse on this site, cookies collect data to enhance your experience and personalize the content and advertising you see.
Visit our Privacy Policy to learn more. By continuing to use the site, you agree to this use of cookies and data.
  • en Belgique
  • Liste des pays
  • À 7 jours
  • Température de l'eau
  • Carte satellitaire
  • Carte météo
  • Widgets météo
  • user-avatar
    Se connecter

    Météo par heure à Kranevo

    Ce jour, 14 Décembre, Vendredi

    Heure Température Précipitation Vent Pression Humidité
    00:00 +1°C° 0 mm 2 m/s 760 mmHg 71%
    01:00 +1°C° 0 mm 2 m/s 760 mmHg 70%
    02:00 +1°C° 0 mm 2 m/s 760 mmHg 69%
    03:00 +2°C° 0 mm 1 m/s 760 mmHg 67%
    04:00 +2°C° 0 mm 1 m/s 760 mmHg 66%
    05:00 +2°C° 0 mm 1 m/s 760 mmHg 64%
    06:00 +2°C° 0 mm 1 m/s 760 mmHg 64%
    07:00 +2°C° 0 mm 1 m/s 760 mmHg 63%
    08:00 +2°C° 0 mm 1 m/s 761 mmHg 60%
    09:00 +3°C° 0 mm 1 m/s 761 mmHg 57%
    10:00 +4°C° 0 mm 2 m/s 761 mmHg 54%
    11:00 +5°C° 0 mm 2 m/s 761 mmHg 51%
    12:00 +5°C° 0 mm 2 m/s 761 mmHg 53%
    13:00 +5°C° 0 mm 3 m/s 761 mmHg 55%
    14:00 +5°C° 0 mm 3 m/s 761 mmHg 56%
    15:00 +4°C° 0 mm 3 m/s 761 mmHg 61%
    16:00 +3°C° 0 mm 4 m/s 761 mmHg 66%
    17:00 +3°C° 0 mm 4 m/s 761 mmHg 71%
    18:00 +3°C° 0.1 mm 4 m/s 761 mmHg 73%
    19:00 +3°C° 0.1 mm 4 m/s 761 mmHg 76%
    20:00 +2°C° 0.1 mm 5 m/s 761 mmHg 78%
    21:00 +2°C° 0.5 mm 5 m/s 761 mmHg 81%
    22:00 +3°C° 0.5 mm 5 m/s 761 mmHg 85%
    23:00 +3°C° 0.5 mm 5 m/s 761 mmHg 88%

    Demain, 15 Décembre, Samedi

    Heure Température Précipitation Vent Pression Humidité
    00:00 +3°C° 0.5 mm 5 m/s 761 mmHg 89%
    01:00 +3°C° 0.5 mm 5 m/s 761 mmHg 90%
    02:00 +5°C° 0.5 mm 5 m/s 761 mmHg 91%
    03:00 +5°C° 0.5 mm 5 m/s 760 mmHg 91%
    04:00 +5°C° 0.5 mm 5 m/s 760 mmHg 91%
    05:00 +5°C° 0.5 mm 5 m/s 760 mmHg 91%
    06:00 +5°C° 0.5 mm 5 m/s 760 mmHg 92%
    07:00 +5°C° 0.5 mm 6 m/s 760 mmHg 93%
    08:00 +5°C° 0.5 mm 6 m/s 760 mmHg 93%
    09:00 +5°C° 0.4 mm 6 m/s 760 mmHg 93%
    10:00 +5°C° 0.4 mm 6 m/s 760 mmHg 93%
    11:00 +7°C° 0.4 mm 5 m/s 760 mmHg 93%
    12:00 +7°C° 0.2 mm 5 m/s 760 mmHg 94%
    13:00 +7°C° 0.2 mm 5 m/s 760 mmHg 94%
    14:00 +7°C° 0.2 mm 5 m/s 759 mmHg 95%
    15:00 +7°C° 0.7 mm 5 m/s 759 mmHg 95%
    16:00 +7°C° 0.7 mm 5 m/s 759 mmHg 96%
    17:00 +7°C° 0.7 mm 5 m/s 759 mmHg 96%
    18:00 +8°C° 0.5 mm 5 m/s 759 mmHg 96%
    19:00 +8°C° 0.5 mm 5 m/s 759 mmHg 96%
    20:00 +8°C° 0.5 mm 5 m/s 759 mmHg 96%
    21:00 +8°C° 0.1 mm 5 m/s 759 mmHg 96%
    22:00 +8°C° 0.1 mm 6 m/s 759 mmHg 96%
    23:00 +8°C° 0.1 mm 6 m/s 759 mmHg 96%

    Après-demain, 16 Décembre, Dimanche

    Heure Température Précipitation Vent Pression Humidité
    00:00 +8°C° 0 mm 6 m/s 759 mmHg 96%
    01:00 +8°C° 0 mm 6 m/s 759 mmHg 96%
    02:00 +8°C° 0 mm 6 m/s 759 mmHg 96%
    03:00 +8°C° 0 mm 6 m/s 758 mmHg 96%
    04:00 +8°C° 0 mm 6 m/s 758 mmHg 96%
    05:00 +8°C° 0 mm 6 m/s 758 mmHg 96%
    06:00 +8°C° 0.2 mm 6 m/s 758 mmHg 96%
    07:00 +8°C° 0.2 mm 6 m/s 758 mmHg 95%
    08:00 +8°C° 0.2 mm 6 m/s 758 mmHg 95%
    09:00 +8°C° 0.4 mm 7 m/s 759 mmHg 95%
    10:00 +9°C° 0.4 mm 7 m/s 759 mmHg 94%
    11:00 +9°C° 0.4 mm 7 m/s 759 mmHg 93%
    12:00 +9°C° 0.3 mm 7 m/s 759 mmHg 93%
    13:00 +8°C° 0.3 mm 7 m/s 758 mmHg 93%
    14:00 +8°C° 0.3 mm 7 m/s 758 mmHg 92%
    15:00 +8°C° 0.1 mm 7 m/s 758 mmHg 92%
    16:00 +8°C° 0.1 mm 7 m/s 759 mmHg 92%
    17:00 +8°C° 0.1 mm 7 m/s 759 mmHg 92%
    18:00 +8°C° 0.1 mm 7 m/s 759 mmHg 92%
    19:00 +8°C° 0.1 mm 7 m/s 760 mmHg 92%
    20:00 +8°C° 0.1 mm 7 m/s 760 mmHg 92%
    21:00 +8°C° 0.1 mm 6 m/s 760 mmHg 92%
    22:00 +7°C° 0.1 mm 6 m/s 760 mmHg 92%
    23:00 +7°C° 0.1 mm 6 m/s 761 mmHg 92%

    17 Décembre, Lundi

    Heure Température Précipitation Vent Pression Humidité
    00:00 +7°C° 0.1 mm 6 m/s 761 mmHg 92%
    01:00 +7°C° 0.1 mm 6 m/s 761 mmHg 92%
    02:00 +7°C° 0.1 mm 6 m/s 761 mmHg 93%
    03:00 +7°C° 0.1 mm 6 m/s 761 mmHg 92%
    04:00 +7°C° 0.1 mm 6 m/s 761 mmHg 92%
    05:00 +5°C° 0.1 mm 6 m/s 761 mmHg 92%
    06:00 +5°C° 0.1 mm 6 m/s 761 mmHg 92%
    07:00 +6°C° 0.1 mm 5 m/s 761 mmHg 92%
    08:00 +6°C° 0.1 mm 5 m/s 761 mmHg 92%
    09:00 +6°C° 0.1 mm 5 m/s 761 mmHg 91%
    10:00 +6°C° 0.1 mm 5 m/s 761 mmHg 90%
    11:00 +6°C° 0.1 mm 5 m/s 761 mmHg 89%
    12:00 +6°C° 0 mm 5 m/s 761 mmHg 87%
    13:00 +6°C° 0 mm 5 m/s 761 mmHg 86%
    14:00 +7°C° 0 mm 5 m/s 760 mmHg 84%
    15:00 +6°C° 0 mm 5 m/s 760 mmHg 85%
    16:00 +6°C° 0 mm 5 m/s 761 mmHg 86%
    17:00 +6°C° 0 mm 5 m/s 761 mmHg 87%
    18:00 +6°C° 0 mm 5 m/s 761 mmHg 88%
    19:00 +5°C° 0 mm 5 m/s 761 mmHg 88%
    20:00 +5°C° 0 mm 5 m/s 761 mmHg 88%
    21:00 +5°C° 0 mm 5 m/s 761 mmHg 89%
    22:00 +5°C° 0 mm 5 m/s 762 mmHg 89%
    23:00 +5°C° 0 mm 5 m/s 762 mmHg 89%

    18 Décembre, Mardi

    Heure Température Précipitation Vent Pression Humidité
    00:00 +5°C° 0 mm 5 m/s 762 mmHg 89%
    01:00 +5°C° 0 mm 5 m/s 761 mmHg 89%
    02:00 +5°C° 0 mm 4 m/s 761 mmHg 90%
    03:00 +5°C° 0 mm 5 m/s 761 mmHg 90%
    04:00 +5°C° 0 mm 5 m/s 761 mmHg 89%
    05:00 +5°C° 0 mm 5 m/s 761 mmHg 89%
    06:00 +5°C° 0.1 mm 5 m/s 762 mmHg 89%
    07:00 +5°C° 0.1 mm 5 m/s 762 mmHg 89%
    08:00 +3°C° 0.1 mm 5 m/s 762 mmHg 89%
    09:00 +5°C° 0.1 mm 5 m/s 762 mmHg 87%
    10:00 +5°C° 0.1 mm 5 m/s 763 mmHg 86%
    11:00 +5°C° 0.1 mm 5 m/s 763 mmHg 85%
    12:00 +5°C° 0.1 mm 5 m/s 763 mmHg 84%
    13:00 +5°C° 0.1 mm 5 m/s 762 mmHg 84%
    14:00 +4°C° 0.1 mm 6 m/s 762 mmHg 83%
    15:00 +3°C° 0.1 mm 6 m/s 762 mmHg 84%
    16:00 +3°C° 0.1 mm 6 m/s 763 mmHg 84%
    17:00 +3°C° 0.1 mm 6 m/s 763 mmHg 85%
    18:00 +3°C° 0.2 mm 6 m/s 763 mmHg 85%
    19:00 +2°C° 0.2 mm 6 m/s 763 mmHg 86%
    20:00 +2°C° 0.2 mm 6 m/s 764 mmHg 86%
    21:00 +2°C° 0.1 mm 6 m/s 764 mmHg 86%
    22:00 +2°C° 0.1 mm 6 m/s 764 mmHg 87%
    23:00 +1°C° 0.1 mm 6 m/s 764 mmHg 87%

    19 Décembre, Mercredi

    Heure Température Précipitation Vent Pression Humidité
    00:00 +1°C° 0 mm 6 m/s 764 mmHg 87%
    01:00 +1°C° 0 mm 6 m/s 764 mmHg 88%
    02:00 +1°C° 0 mm 6 m/s 764 mmHg 88%
    03:00 -1°C° 0.1 mm 6 m/s 764 mmHg 88%
    04:00 -1°C° 0.1 mm 6 m/s 764 mmHg 88%
    05:00 -1°C° 0.1 mm 6 m/s 764 mmHg 88%
    06:00 -1°C° 0 mm 6 m/s 764 mmHg 88%
    07:00 -1°C° 0 mm 6 m/s 764 mmHg 88%
    08:00 -2°C° 0 mm 6 m/s 764 mmHg 88%
    09:00 -1°C° 0 mm 6 m/s 764 mmHg 86%
    10:00 -1°C° 0 mm 6 m/s 764 mmHg 84%
    11:00 +1°C° 0 mm 6 m/s 765 mmHg 82%
    12:00 +1°C° 0 mm 6 m/s 764 mmHg 80%
    13:00 +1°C° 0 mm 6 m/s 764 mmHg 79%
    14:00 +2°C° 0 mm 6 m/s 764 mmHg 77%
    15:00 +1°C° 0 mm 6 m/s 764 mmHg 78%
    16:00 +1°C° 0 mm 6 m/s 764 mmHg 80%
    17:00 -1°C° 0 mm 6 m/s 764 mmHg 81%
    18:00 0°C° 0 mm 5 m/s 764 mmHg 82%
    19:00 -1°C° 0 mm 5 m/s 765 mmHg 84%
    20:00 -1°C° 0 mm 4 m/s 765 mmHg 85%
    21:00 -1°C° 0 mm 4 m/s 765 mmHg 85%
    22:00 -2°C° 0 mm 4 m/s 765 mmHg 86%
    23:00 -2°C° 0 mm 4 m/s 765 mmHg 86%
    Voir plus